Location: Berlin
(38.3226°N, 75.2177°W)
Time: 23:24:54
(UTC+00:00)

deb Chang Zheng 4 - Pass Details

Date: 26 October 2020
Orbit: 602 x 624 km, 98.6° (Epoch: 05 December)

Event Time Altitude Azimuth Distance (km) Brightness Sun altitude
Rises 09:38:46 0° 14° (NNE) 2,862 7.1 -20.7°
Reaches altitude 10° 09:40:56 10° 15° (NNE) 1,956 6.3 -20.3°
Maximum altitude 09:45:11 83° 102° (ESE) 615 3.5 -19.4°
Drops below altitude 10° 09:49:26 10° 192° (SSW) 1,952 6.0 -18.6°
Sets 09:51:36 0° 193° (SSW) 2,855 6.9 -18.2°
